Home   Weather   Winslow   Past weeks
Flag for USA

Past Weather in Winslow, Arizona, USA — Yesterday and Last 2 Weeks

Now
85 °F

Clear.


Feels Like: 82 °F
Forecast: 97 / 67 °F
Wind: 12 mph from Southwest

Location: Winslow Municipal Airport

Current Time: Jul 16, 2019 at 10:14:08 pm

Latest Report: Jul 16, 2019 at 8:56 pm


Visibility: 10 mi

Pressure: 29.76 "Hg (25.18 "Hg at 1478m altitude)

Humidity: 17%

Dew Point: 35 °F

Location of WinslowLocation

Past Weather in Winslow — Graph

°F

Winslow Temperature Yesterday

Maximum temperature yesterday: 100 °F (at 1:56 pm)
Minimum temperature yesterday: 64 °F (at 4:56 am)
Average temperature yesterday: 83 °F

High & Low Weather Summary for the Past Weeks

 TemperatureHumidityPressure
High101 °F (Jul 16, 3:56 pm)62% (Jul 8, 4:56 am)30.14 "Hg (Jul 8, 4:56 am)
Low54 °F (Jul 9, 12:56 am)7% (Jul 5, 5:56 pm)29.72 "Hg (Jul 3, 2:56 pm)
Average80 °F25%29.88 "Hg
* Reported Jul 1 8:56 pm — Jul 16 8:56 pm, Winslow. Weather by CustomWeather, © 2019

Note: Actual official high and low records may vary slightly from our data, if they occured in-between our weather recording intervals... More about our weather records

Advertising

Winslow Weather History for the Previous 24 Hours

Scroll right to see more
 ConditionsComfort  
Time TempWeatherWind HumidityBarometerVisibility
8:56 pm
Tue, Jul 16
85 °FClear.12 mph17%29.76 "Hg10 mi
7:56 pm90 °FClear.15 mph14%29.74 "Hg10 mi
6:56 pm94 °FSunny.18 mph13%29.72 "Hg10 mi
5:56 pm97 °FSunny.20 mph12%29.72 "Hg10 mi
4:56 pm99 °FSunny.25 mph12%29.72 "Hg10 mi
3:56 pm101 °FSunny.23 mph11%29.73 "Hg10 mi
2:56 pm99 °FSunny.18 mph14%29.72 "Hg10 mi
1:56 pm100 °FSunny.15 mph14%29.74 "Hg10 mi
12:56 pm100 °FSunny.21 mph13%29.76 "Hg10 mi
11:56 am98 °FScattered clouds.16 mph15%29.79 "Hg10 mi
10:56 am97 °FSunny.5 mph17%29.80 "Hg10 mi
9:56 am92 °FSunny.No wind19%29.83 "Hg10 mi
8:56 am90 °FSunny.3 mph20%29.83 "Hg10 mi
7:56 am85 °FPartly sunny.3 mph24%29.84 "Hg10 mi
6:56 am80 °FSunny.8 mph31%29.83 "Hg10 mi
5:56 am70 °FSunny.7 mph41%29.84 "Hg10 mi
4:56 am68 °FClear.8 mph47%29.85 "Hg10 mi
3:56 am67 °FClear.No wind55%29.80 "Hg10 mi
2:56 am75 °FClear.No wind37%29.78 "Hg10 mi
1:56 am76 °FClear.12 mph37%29.77 "Hg10 mi
12:56 am78 °FClear.5 mph36%29.78 "Hg10 mi
11:56 pm
Mon, Jul 15
75 °FClear.No wind43%29.79 "Hg10 mi
10:56 pm80 °FClear.8 mph35%29.78 "Hg10 mi
Weather by CustomWeather, © 2019

See weather overview